| time (UTC) | temp F | wind direction | speed MPH | gust MPH | rain 1hr in | rain 24hr in | rain mn in | humidity % | barometer mb |
| 20260506114548 | 0 | 336 | 2.0 | 8.0 | 0.00 | 0.00 | 0.00 | 1007.8 | |
| 20260506113050 | 0 | 5 | 2.0 | 6.0 | 0.00 | 0.00 | 0.00 | 1007.7 | |
| 20260506111542 | 0 | 334 | 0.0 | 10.0 | 0.00 | 0.00 | 0.00 | 1007.8 | |
| 20260506110038 | 0 | 331 | 4.0 | 10.0 | 0.00 | 0.00 | 0.00 | 1007.8 | |
| 20260506104537 | 0 | 319 | 2.0 | 9.0 | 0.00 | 0.00 | 0.00 | 1007.8 | |
| 20260506103032 | 0 | 345 | 3.0 | 12.0 | 0.00 | 0.00 | 0.00 | 1007.8 | |
| 20260506101533 | 0 | 19 | 0.0 | 8.0 | 0.00 | 0.00 | 0.00 | 1007.6 | |
| 20260506100028 | 0 | 60 | 3.0 | 10.0 | 0.00 | 0.00 | 0.00 | 1007.8 | |
| 20260506094516 | 0 | 334 | 0.0 | 8.0 | 0.00 | 0.00 | 0.00 | 1007.8 | |
| 20260506093014 | 0 | 15 | 1.0 | 13.0 | 0.00 | 0.00 | 0.00 | 1007.8 | |
| 20260506091510 | 0 | 338 | 4.0 | 12.0 | 0.00 | 0.00 | 0.00 | 1007.8 | |
| 20260506090004 | 0 | 355 | 2.0 | 10.0 | 0.00 | 0.00 | 0.00 | 1007.7 | |
| 20260506084603 | 0 | 5 | 2.0 | 8.0 | 0.00 | 0.00 | 0.00 | 1007.6 | |
| 20260506083059 | 0 | 5 | 3.0 | 9.0 | 0.00 | 0.00 | 0.00 | 1007.5 | |
| 20260506081554 | 0 | 321 | 3.0 | 10.0 | 0.00 | 0.00 | 0.00 | 1007.6 | |
| 20260506073039 | 0 | 323 | 2.0 | 9.0 | 0.00 | 0.00 | 0.00 | 1007.5 | |
| 20260506071534 | 0 | 36 | 2.0 | 9.0 | 0.00 | 0.00 | 0.00 | 1007.5 | |
| 20260506061517 | 0 | 355 | 3.0 | 10.0 | 0.00 | 0.00 | 0.00 | 1007.1 | |
| 20260506044615 | 0 | 355 | 2.0 | 5.0 | 0.00 | 0.00 | 0.00 | 1006.9 | |
| 20260506043047 | 0 | 342 | 1.0 | 3.0 | 0.00 | 0.00 | 0.00 | 1006.9 | |
| 20260506041542 | 0 | 344 | 2.0 | 5.0 | 0.00 | 0.00 | 0.00 | 1006.9 | |
| 20260506040041 | 0 | 27 | 2.0 | 5.0 | 0.00 | 0.00 | 0.00 | 1006.7 | |
| 20260506034534 | 0 | 40 | 2.0 | 5.0 | 0.00 | 0.00 | 0.00 | 1006.9 | |
| 20260506033034 | 0 | 24 | 2.0 | 8.0 | 0.00 | 0.00 | 0.00 | 1006.8 | |
| 20260506031526 | 0 | 18 | 2.0 | 6.0 | 0.00 | 0.00 | 0.00 | 1006.8 | |
| 20260506030021 | 0 | 333 | 3.0 | 9.0 | 0.00 | 0.00 | 0.00 | 1006.9 | |
| 20260506024518 | 0 | 40 | 3.0 | 9.0 | 0.00 | 0.00 | 0.00 | 1007.0 | |
| 20260506023023 | 0 | 32 | 2.0 | 5.0 | 0.00 | 0.00 | 0.00 | 1007.1 | |
| 20260506021518 | 0 | 13 | 2.0 | 7.0 | 0.00 | 0.00 | 0.00 | 1007.2 | |
| 20260506020004 | 0 | 25 | 1.0 | 5.0 | 0.00 | 0.00 | 0.00 | 1007.2 | |
| 20260506014603 | 0 | 82 | 1.0 | 4.0 | 0.00 | 0.00 | 0.00 | 1007.3 | |
| 20260506013104 | 0 | 53 | 2.0 | 5.0 | 0.00 | 0.00 | 0.00 | 1007.3 | |
| 20260506011552 | 0 | 72 | 0.0 | 0.0 | 0.00 | 0.00 | 0.00 | 1007.3 | |
| 20260506010055 | 0 | 44 | 0.0 | 0.0 | 0.00 | 0.00 | 0.00 | 1007.4 | |
| 20260506004548 | 0 | 342 | 0.0 | 5.0 | 0.00 | 0.00 | 0.00 | 1007.5 | |
| 20260506003038 | 0 | 44 | 0.0 | 6.0 | 0.00 | 0.00 | 0.00 | 1007.5 | |
| 20260506001539 | 0 | 35 | 2.0 | 5.0 | 0.00 | 0.00 | 0.00 | 1007.6 | |
| 20260506000030 | 0 | 355 | 3.0 | 11.0 | 0.00 | 0.00 | 0.00 | 1007.5 | |
| 20260505234539 | 0 | 22 | 2.0 | 7.0 | 0.00 | 0.00 | 0.00 | 1007.6 | |
| 20260505233033 | 0 | 10 | 2.0 | 7.0 | 0.00 | 0.00 | 0.00 | 1007.6 | |
| 20260505231519 | 0 | 335 | 1.0 | 5.0 | 0.00 | 0.00 | 0.00 | 1007.4 | |
| 20260505230014 | 0 | 27 | 2.0 | 5.0 | 0.00 | 0.00 | 0.00 | 1007.5 | |
| 20260505224514 | 0 | 344 | 2.0 | 7.0 | 0.00 | 0.00 | 0.00 | 1007.5 | |
| 20260505223013 | 0 | 28 | 1.0 | 6.0 | 0.00 | 0.00 | 0.00 | 1007.7 | |
| 20260505221513 | 0 | 355 | 0.0 | 6.0 | 0.00 | 0.00 | 0.00 | 1007.7 | |
| 20260505220013 | 0 | 12 | 0.0 | 3.0 | 0.00 | 0.00 | 0.00 | 1007.5 | |
| 20260505214511 | 0 | 342 | 0.0 | 4.0 | 0.00 | 0.00 | 0.00 | 1007.5 | |
| 20260505213011 | 0 | 50 | 0.0 | 5.0 | 0.00 | 0.00 | 0.00 | 1007.5 | |
| 20260505211512 | 0 | 66 | 1.0 | 4.0 | 0.00 | 0.00 | 0.00 | 1007.5 | |
| 20260505210010 | 0 | 31 | 1.0 | 4.0 | 0.00 | 0.00 | 0.00 | 1007.5 | |
| 20260505204509 | 0 | 67 | 0.0 | 4.0 | 0.00 | 0.00 | 0.00 | 1007.5 | |
| 20260505203016 | 0 | 13 | 2.0 | 8.0 | 0.00 | 0.00 | 0.00 | 1007.4 | |
| 20260505201509 | 0 | 48 | 2.0 | 5.0 | 0.00 | 0.00 | 0.00 | 1007.2 | |
| 20260505200007 | 0 | 21 | 0.0 | 3.0 | 0.00 | 0.00 | 0.00 | 1007.1 | |
| 20260505194507 | 0 | 17 | 0.0 | 3.0 | 0.00 | 0.00 | 0.00 | 1006.8 | |
| 20260505193005 | 0 | 56 | 2.0 | 6.0 | 0.00 | 0.00 | 0.00 | 1006.6 | |
| 20260505191559 | 0 | 355 | 0.0 | 4.0 | 0.00 | 0.00 | 0.00 | 1006.7 | |
| 20260505190054 | 0 | 19 | 0.0 | 4.0 | 0.00 | 0.00 | 0.00 | 1006.5 | |
| 20260505184551 | 0 | 57 | 1.0 | 3.0 | 0.00 | 0.00 | 0.00 | 1006.4 | |
| 20260505183046 | 0 | 59 | 0.0 | 0.0 | 0.00 | 0.00 | 0.00 | 1006.3 | |
| 20260505181541 | 0 | 79 | 1.0 | 4.0 | 0.00 | 0.00 | 0.00 | 1006.3 | |
| 20260505180057 | 0 | 350 | 0.0 | 4.0 | 0.00 | 0.00 | 0.00 | 1006.3 | |
| 20260505174549 | 0 | 331 | 2.0 | 4.0 | 0.00 | 0.00 | 0.00 | 1006.3 | |
| 20260505173033 | 0 | 67 | 1.0 | 5.0 | 0.00 | 0.00 | 0.00 | 1006.3 | |
| 20260505171525 | 0 | 45 | 2.0 | 10.0 | 0.00 | 0.00 | 0.00 | 1006.4 | |
| 20260505170018 | 0 | 44 | 0.0 | 8.0 | 0.00 | 0.00 | 0.00 | 1006.4 | |
| 20260505164517 | 0 | 36 | 3.0 | 9.0 | 0.00 | 0.00 | 0.00 | 1006.4 | |
| 20260505163019 | 0 | 347 | 3.0 | 10.0 | 0.00 | 0.00 | 0.00 | 1006.4 | |
| 20260505161509 | 0 | 53 | 4.0 | 10.0 | 0.00 | 0.00 | 0.00 | 1006.4 | |
| 20260505153056 | 0 | 15 | 0.0 | 9.0 | 0.00 | 0.00 | 0.00 | 1006.5 | |
| 20260505151552 | 0 | 63 | 0.0 | 0.0 | 0.00 | 0.00 | 0.00 | 1006.5 | |
| 20260505124507 | 0 | 63 | 3.0 | 12.0 | 0.00 | 0.00 | 0.00 | 1007.2 | |
| 20260505123002 | 0 | 41 | 3.0 | 11.0 | 0.00 | 0.00 | 0.00 | 1007.2 | |
| 20260505121501 | 0 | 21 | 3.0 | 12.0 | 0.00 | 0.00 | 0.00 | 1007.1 | |
| 20260505120057 | 0 | 40 | 4.0 | 11.0 | 0.00 | 0.00 | 0.00 | 1007.1 |